Time,TemperatureF,DewpointF,PressureIn,WindDirection,WindDirectionDegrees,WindSpeedMPH,WindSpeedGustMPH,Humidity,HourlyPrecipIn,Conditions,Clouds,dailyrainin,SolarRadiationWatts/m^2,SoftwareType,DateUTC
2013-05-19 00:13:00,46.0,44.0,-100.00,West,266,0.0,0.0,92,0.00,,,0.00,1.000000,,2013-05-19 04:13:00,
2013-05-19 00:23:00,46.0,44.0,-100.00,West,266,0.0,0.0,92,0.00,,,0.00,1.000000,,2013-05-19 04:23:00,
2013-05-19 00:33:00,46.0,44.0,-100.00,West,266,0.0,0.0,92,0.00,,,0.00,1.000000,,2013-05-19 04:33:00,
2013-05-19 00:42:00,46.0,44.0,-100.00,West,266,0.0,0.0,92,0.00,,,0.00,1.000000,,2013-05-19 04:42:00,
2013-05-19 01:12:00,47.0,44.0,-100.00,South,175,1.0,2.0,90,0.00,,,0.00,1.000000,,2013-05-19 05:12:00,
2013-05-19 01:22:00,47.0,44.0,-100.00,South,175,1.0,2.0,90,0.00,,,0.00,1.000000,,2013-05-19 05:22:00,
2013-05-19 01:32:00,47.0,44.0,-100.00,South,175,1.0,2.0,90,0.00,,,0.00,1.000000,,2013-05-19 05:32:00,
2013-05-19 01:42:00,47.0,44.0,-100.00,South,175,1.0,2.0,90,0.00,,,0.00,1.000000,,2013-05-19 05:42:00,
2013-05-19 02:12:00,46.0,44.0,-100.00,SSE,162,0.0,2.0,92,0.00,,,0.00,1.000000,,2013-05-19 06:12:00,
2013-05-19 02:21:00,46.0,44.0,-100.00,SSE,162,0.0,2.0,92,0.00,,,0.00,1.000000,,2013-05-19 06:21:00,
2013-05-19 02:32:00,46.0,44.0,-100.00,SSE,162,0.0,2.0,92,0.00,,,0.00,1.000000,,2013-05-19 06:32:00,
2013-05-19 02:42:00,46.0,44.0,-100.00,SSE,162,0.0,2.0,92,0.00,,,0.00,1.000000,,2013-05-19 06:42:00,
2013-05-19 03:11:00,46.0,44.0,-100.00,South,171,2.0,4.0,94,0.00,,,0.00,1.000000,,2013-05-19 07:11:00,
2013-05-19 03:22:00,46.0,44.0,-100.00,South,171,2.0,4.0,94,0.00,,,0.00,1.000000,,2013-05-19 07:22:00,
2013-05-19 03:32:00,46.0,44.0,-100.00,South,171,2.0,4.0,94,0.00,,,0.00,1.000000,,2013-05-19 07:32:00,
2013-05-19 03:42:00,46.0,44.0,-100.00,South,171,2.0,4.0,94,0.00,,,0.00,1.000000,,2013-05-19 07:42:00,
2013-05-19 04:12:00,48.0,45.0,-100.00,SE,128,0.0,4.0,88,0.00,,,0.00,1.000000,,2013-05-19 08:12:00,
2013-05-19 04:22:00,48.0,45.0,-100.00,SE,128,0.0,4.0,88,0.00,,,0.00,1.000000,,2013-05-19 08:22:00,
2013-05-19 04:32:00,48.0,45.0,-100.00,SE,128,0.0,4.0,88,0.00,,,0.00,1.000000,,2013-05-19 08:32:00,
2013-05-19 04:42:00,48.0,45.0,-100.00,SE,128,0.0,4.0,88,0.00,,,0.00,1.000000,,2013-05-19 08:42:00,
2013-05-19 05:12:00,49.0,46.0,-100.00,SE,127,0.0,2.0,88,0.00,,,0.00,1.000000,,2013-05-19 09:12:00,
2013-05-19 05:21:00,49.0,46.0,-100.00,SE,127,0.0,2.0,88,0.00,,,0.00,1.000000,,2013-05-19 09:21:00,
2013-05-19 05:32:00,49.0,46.0,-100.00,SE,127,0.0,2.0,88,0.00,,,0.00,1.000000,,2013-05-19 09:32:00,
2013-05-19 05:43:00,49.0,46.0,-100.00,SE,127,0.0,2.0,88,0.00,,,0.00,1.000000,,2013-05-19 09:43:00,
2013-05-19 06:13:00,51.0,46.0,-100.00,ESE,123,1.0,3.0,84,0.00,,,0.00,1.000000,,2013-05-19 10:13:00,
2013-05-19 06:23:00,51.0,46.0,-100.00,ESE,123,1.0,3.0,84,0.00,,,0.00,1.000000,,2013-05-19 10:23:00,
2013-05-19 06:33:00,51.0,46.0,-100.00,ESE,123,1.0,3.0,84,0.00,,,0.00,1.000000,,2013-05-19 10:33:00,
2013-05-19 06:42:00,51.0,46.0,-100.00,ESE,123,1.0,3.0,84,0.00,,,0.00,1.000000,,2013-05-19 10:42:00,
2013-05-19 07:12:00,51.0,47.0,-100.00,East,88,0.0,3.0,86,0.00,,,-99.99,7.000000,,2013-05-19 11:12:00,
2013-05-19 07:22:00,51.0,47.0,-100.00,East,88,0.0,3.0,86,0.00,,,-99.99,7.000000,,2013-05-19 11:22:00,
2013-05-19 07:32:00,51.0,47.0,-100.00,East,88,0.0,3.0,86,0.00,,,-99.99,7.000000,,2013-05-19 11:32:00,
2013-05-19 07:42:00,51.0,47.0,-100.00,East,88,0.0,3.0,86,0.00,,,-99.99,7.000000,,2013-05-19 11:42:00,
2013-05-19 08:12:00,57.0,45.0,-100.00,SSE,154,3.0,7.0,64,0.00,,,0.00,105.000000,,2013-05-19 12:12:00,
2013-05-19 08:22:00,57.0,45.0,-100.00,SSE,154,3.0,7.0,64,0.00,,,0.00,105.000000,,2013-05-19 12:22:00,
2013-05-19 08:32:00,57.0,45.0,-100.00,SSE,154,3.0,7.0,64,0.00,,,0.00,105.000000,,2013-05-19 12:32:00,
2013-05-19 08:42:00,57.0,45.0,-100.00,SSE,154,3.0,7.0,64,0.00,,,0.00,105.000000,,2013-05-19 12:42:00,
2013-05-19 09:11:00,63.0,47.0,-100.00,South,174,3.0,8.0,56,0.00,,,0.00,258.000000,,2013-05-19 13:11:00,
2013-05-19 09:21:00,63.0,47.0,-100.00,South,174,3.0,8.0,56,0.00,,,0.00,258.000000,,2013-05-19 13:21:00,
2013-05-19 09:42:00,63.0,47.0,-100.00,South,174,3.0,8.0,56,0.00,,,0.00,258.000000,,2013-05-19 13:42:00,
2013-05-19 10:11:00,68.0,49.0,-100.00,SSW,194,8.0,12.0,51,0.00,,,0.00,438.000000,,2013-05-19 14:11:00,
2013-05-19 10:21:00,68.0,49.0,-100.00,SSW,194,8.0,12.0,51,0.00,,,0.00,438.000000,,2013-05-19 14:21:00,
2013-05-19 11:12:00,73.0,52.0,-100.00,SSW,193,6.0,12.0,47,-99.99,,,0.00,579.000000,,2013-05-19 15:12:00,
2013-05-19 11:22:00,73.0,52.0,-100.00,SSW,193,6.0,12.0,47,-99.99,,,0.00,579.000000,,2013-05-19 15:22:00,
2013-05-19 12:12:00,79.0,55.0,-100.00,South,191,6.0,10.0,44,-99.99,,,0.00,733.000000,,2013-05-19 16:12:00,
2013-05-19 12:23:00,79.0,55.0,-100.00,South,191,6.0,10.0,44,-99.99,,,0.00,733.000000,,2013-05-19 16:23:00,
2013-05-19 13:12:00,81.0,58.0,-100.00,South,190,6.0,12.0,45,-99.99,,,0.00,741.000000,,2013-05-19 17:12:00,
2013-05-19 13:22:00,81.0,58.0,-100.00,South,190,6.0,12.0,45,-99.99,,,0.00,741.000000,,2013-05-19 17:22:00,
2013-05-19 14:12:00,83.0,56.0,-100.00,SSW,193,6.0,14.0,40,-99.99,,,0.00,881.000000,,2013-05-19 18:12:00,
2013-05-19 14:22:00,83.0,56.0,-100.00,SSW,193,6.0,14.0,40,-99.99,,,0.00,881.000000,,2013-05-19 18:22:00,
2013-05-19 15:11:00,82.0,55.0,-100.00,ESE,122,7.0,13.0,40,-99.99,,,0.00,570.000000,,2013-05-19 19:11:00,
2013-05-19 15:22:00,82.0,55.0,-100.00,ESE,122,7.0,13.0,40,-99.99,,,0.00,570.000000,,2013-05-19 19:22:00,
2013-05-19 16:11:00,78.0,54.0,-100.00,ESE,121,6.0,13.0,43,-99.99,,,0.00,237.000000,,2013-05-19 20:11:00,
2013-05-19 16:22:00,78.0,54.0,-100.00,ESE,121,6.0,13.0,43,-99.99,,,0.00,237.000000,,2013-05-19 20:22:00,
2013-05-19 16:32:00,78.0,54.0,-100.00,ESE,121,6.0,13.0,43,-99.99,,,0.00,237.000000,,2013-05-19 20:32:00,
2013-05-19 16:42:00,78.0,54.0,-100.00,ESE,121,6.0,13.0,43,-99.99,,,0.00,237.000000,,2013-05-19 20:42:00,
2013-05-19 17:11:00,81.0,55.0,-100.00,ESE,116,7.0,12.0,41,0.00,,,0.00,446.000000,,2013-05-19 21:11:00,
2013-05-19 17:22:00,81.0,55.0,-100.00,ESE,116,7.0,12.0,41,0.00,,,0.00,446.000000,,2013-05-19 21:22:00,
2013-05-19 17:32:00,81.0,55.0,-100.00,ESE,116,7.0,12.0,41,0.00,,,0.00,446.000000,,2013-05-19 21:32:00,
2013-05-19 18:12:00,80.0,55.0,-100.00,ESE,116,7.0,13.0,42,-99.99,,,0.00,505.000000,,2013-05-19 22:12:00,
2013-05-19 18:23:00,80.0,55.0,-100.00,ESE,116,7.0,13.0,42,-99.99,,,0.00,505.000000,,2013-05-19 22:23:00,
2013-05-19 18:42:00,80.0,55.0,-100.00,ESE,116,7.0,13.0,42,-99.99,,,0.00,505.000000,,2013-05-19 22:42:00,
2013-05-19 19:12:00,78.0,54.0,-100.00,ESE,118,8.0,12.0,44,0.00,,,0.00,360.000000,,2013-05-19 23:12:00,
2013-05-19 19:22:00,78.0,54.0,-100.00,ESE,118,8.0,12.0,44,0.00,,,0.00,360.000000,,2013-05-19 23:22:00,
2013-05-19 19:32:00,78.0,54.0,-100.00,ESE,118,8.0,12.0,44,0.00,,,0.00,360.000000,,2013-05-19 23:32:00,
2013-05-19 19:42:00,78.0,54.0,-100.00,ESE,118,8.0,12.0,44,0.00,,,0.00,360.000000,,2013-05-19 23:42:00,
2013-05-19 20:12:00,71.0,52.0,-100.00,SE,124,6.0,12.0,52,0.00,,,0.00,145.000000,,2013-05-20 00:12:00,
2013-05-19 20:22:00,71.0,52.0,-100.00,SE,124,6.0,12.0,52,0.00,,,0.00,145.000000,,2013-05-20 00:22:00,
2013-05-19 20:32:00,71.0,52.0,-100.00,SE,124,6.0,12.0,52,0.00,,,0.00,145.000000,,2013-05-20 00:32:00,
2013-05-19 20:42:00,71.0,52.0,-100.00,SE,124,6.0,12.0,52,0.00,,,0.00,145.000000,,2013-05-20 00:42:00,
2013-05-19 21:11:00,67.0,52.0,-100.00,SE,130,3.0,9.0,59,0.00,,,0.00,61.000000,,2013-05-20 01:11:00,
2013-05-19 21:22:00,67.0,52.0,-100.00,SE,130,3.0,9.0,59,0.00,,,0.00,61.000000,,2013-05-20 01:22:00,
2013-05-19 21:32:00,67.0,52.0,-100.00,SE,130,3.0,9.0,59,0.00,,,0.00,61.000000,,2013-05-20 01:32:00,
2013-05-19 21:42:00,67.0,52.0,-100.00,SE,130,3.0,9.0,59,0.00,,,0.00,61.000000,,2013-05-20 01:42:00,
2013-05-19 22:12:00,63.0,51.0,-100.00,ESE,105,1.0,5.0,66,0.00,,,0.00,3.000000,,2013-05-20 02:12:00,
2013-05-19 22:21:00,63.0,51.0,-100.00,ESE,105,1.0,5.0,66,0.00,,,0.00,3.000000,,2013-05-20 02:21:00,
2013-05-19 22:32:00,63.0,51.0,-100.00,ESE,105,1.0,5.0,66,0.00,,,0.00,3.000000,,2013-05-20 02:32:00,
2013-05-19 22:42:00,63.0,51.0,-100.00,ESE,105,1.0,5.0,66,0.00,,,0.00,3.000000,,2013-05-20 02:42:00,
2013-05-19 23:12:00,60.0,52.0,-100.00,SE,126,2.0,4.0,76,0.00,,,0.00,1.000000,,2013-05-20 03:12:00,
2013-05-19 23:21:00,60.0,52.0,-100.00,SE,126,2.0,4.0,76,0.00,,,0.00,1.000000,,2013-05-20 03:21:00,
2013-05-19 23:33:00,60.0,52.0,-100.00,SE,126,2.0,4.0,76,0.00,,,0.00,1.000000,,2013-05-20 03:33:00,
2013-05-19 23:43:00,60.0,52.0,-100.00,SE,126,2.0,4.0,76,0.00,,,0.00,1.000000,,2013-05-20 03:43:00,